This is the latest recevied weather packets stored in our database for station/object N5LSN. If no packets are shown the sender has not sent any weather packets the latest 10 day(s).
| Time | Temp. | Humidity | Pressure | Rain* | Wind** | Luminosity | Snow |
|---|---|---|---|---|---|---|---|
| 1777590749 | 17.22° C | 65% | 1015.5 hPa | 0 mm | - | 151 W/m² | - |
| 1777590444 | 16.67° C | 64% | 1015.5 hPa | 0 mm | - | 125 W/m² | - |
| 1777590141 | 17.22° C | 63% | 1015.4 hPa | 0 mm | - | 112 W/m² | - |
| 1777589838 | 17.22° C | 61% | 1015.4 hPa | 0 mm | - | 139 W/m² | - |
| 1777589533 | 17.22° C | 60% | 1015.5 hPa | 0 mm | - | 192 W/m² | - |
| 1777589232 | 17.22° C | 62% | 1015.5 hPa | 0 mm | - | 173 W/m² | - |
| 1777588930 | 17.78° C | 62% | 1015.4 hPa | 0 mm | - | 171 W/m² | - |
| 1777588625 | 17.22° C | 61% | 1015.5 hPa | 0 mm | - | 184 W/m² | - |
| 1777588321 | 17.78° C | 61% | 1015.4 hPa | 0 mm | - | 222 W/m² | - |
| 1777588017 | 17.78° C | 62% | 1015.3 hPa | 0 mm | - | 244 W/m² | - |
| 1777587712 | 17.78° C | 61% | 1015.4 hPa | 0 mm | - | 199 W/m² | - |
| 1777587406 | 17.78° C | 63% | 1015.3 hPa | 0 mm | - | 193 W/m² | - |
| 1777587103 | 17.78° C | 64% | 1015.5 hPa | 0 mm | - | 202 W/m² | - |
| 1777586799 | 17.78° C | 63% | 1015.2 hPa | 0 mm | - | 193 W/m² | - |
| 1777586494 | 17.78° C | 64% | 1015.4 hPa | 0 mm | - | 183 W/m² | - |
| 1777586189 | 17.78° C | 64% | 1015.4 hPa | 0 mm | - | 199 W/m² | - |
| 1777585888 | 17.78° C | 62% | 1015.2 hPa | 0 mm | - | 252 W/m² | - |
| 1777585588 | 17.78° C | 62% | 1015.5 hPa | 0 mm | - | 241 W/m² | - |
| 1777585284 | 18.33° C | 64% | 1015.5 hPa | 0 mm | - | 236 W/m² | - |
| 1777584978 | 18.33° C | 65% | 1015.5 hPa | 0 mm | - | 219 W/m² | - |
| 1777584676 | 17.78° C | 63% | 1015.5 hPa | 0 mm | - | 218 W/m² | - |
| 1777584373 | 18.33° C | 63% | 1015.5 hPa | 0 mm | - | 209 W/m² | - |
| 1777584069 | 18.33° C | 63% | 1015.6 hPa | 0 mm | - | 231 W/m² | - |
| 1777583763 | 18.33° C | 63% | 1015.7 hPa | 0 mm | - | 227 W/m² | - |
| 1777583463 | 18.33° C | 61% | 1015.8 hPa | 0 mm | - | 253 W/m² | - |
* Rain latest hour (hover to see other rain measurements)
** Current wind speed in m/s (hover to see current wind gust speed)